Terminal Aerodrome Forecast
Issued by NWS

Home | Current Version | Previous Version | Text Only | Print | Product List | Glossary On
Versions: 1 2 3 4 5 6 7 8 9 10 11 12
000
FTUS45 KRIW 171100
TAFCPR
TAF
KCPR 171121Z 1712/1812 24006KT P6SM SKC
     FM171400 23012G18KT P6SM SKC
     FM171800 28013G22KT P6SM FEW120
     FM180130 36010KT P6SM FEW120
     FM180800 05008KT P6SM SCT200=

USA.gov is the U.S. government's official web portal to all federal, state and local government web resources and services.